Location: Aschersleben
(51.7500°N, 11.4670°E)
Time: 17:59:56
(UTC+02:00)

ISS - Visible Passes

Search period start: 21 October 2019 00:00
Search period end: 30 October 2019 23:00
Orbit: 411 x 421 km, 51.6° (Epoch: 21 October)

Date Brightness Start Highest point End Pass type
(mag) Time Alt. Az. Time Alt. Az. Time Alt. Az.
24 Oct -0.6 06:51:24 10° SSE 06:52:33 11° SE 06:53:42 10° ESE visible
26 Oct -1.4 06:48:58 10° SSW 06:51:40 23° SE 06:54:23 10° E visible
27 Oct -1.0 05:01:06 10° S 05:03:14 16° SE 05:05:22 10° ESE visible
28 Oct -0.7 04:14:38 11° SE 04:14:51 11° SE 04:15:37 10° ESE visible
28 Oct -2.6 05:47:42 10° SW 05:50:54 41° SSE 05:54:05 10° E visible
29 Oct -2.2 05:01:14 24° S 05:02:22 30° SSE 05:05:21 10° E visible
30 Oct -1.2 04:14:50 19° ESE 04:14:50 19° ESE 04:16:30 10° E visible
30 Oct -3.5 05:47:44 17° WSW 05:50:12 66° SSE 05:53:34 10° E visible
